Monterey, CA

2:57 PM PST on January 16, 2018 (GMT -0800)
Monterey Peninsula

Weather History for KMRY - March, 2014

Change the Weather History Date:

Friday, March 28, 2014

  Actual Average Record
Temperature  
Mean Temperature 59 °F 53 °F  
Max Temperature 67 °F 61 °F 77 °F (2004)
Min Temperature 50 °F 46 °F 38 °F (1999)
Degree Days  
Heating Degree Days 6    
Month to date heating degree days 216  
Since 1 July heating degree days 2020  
Cooling Degree Days 0    
Month to date cooling degree days 0  
Year to date cooling degree days 2  
Growing Degree Days 7 (Base 50)    
Moisture  
Dew Point 46 °F    
Average Humidity 63    
Maximum Humidity 74    
Minimum Humidity 52    
Precipitation  
Precipitation 0.00 in - 0.52 in (1998)
Month to date precipitation 1.39  
Year to date precipitation 5.19  
Since 1 July precipitation 6.47  
Sea Level Pressure  
Sea Level Pressure 30.21 in    
Wind  
Wind Speed 5 mph (SSW)    
Max Wind Speed 14 mph    
Max Gust Speed 18 mph    
Visibility 10 miles    
Events      
T = Trace of Precipitation, MM = Missing Value Source: NWS Daily Summary

Daily Weather History Graph

Daily Weather History Graph

Search for Another Location

Airport or City:

Trip Planner

Search our weather history database for the weather conditions in past years. The results will help you decide how hot, cold, wet, or windy it might be!

Date:

Astronomy

Mar. 28, 2014 Rise Set
Actual Time 6:59 AM PDT 7:26 PM PDT
Civil Twilight 6:33 AM PDT 7:52 PM PDT
Nautical Twilight 6:02 AM PDT 8:22 PM PDT
Astronomical Twilight 5:31 AM PDT 8:53 PM PDT
Moon 5:29 AM PDT (3/28) 5:31 PM PDT (3/28)
Length of Visible Light 13h 19m
Length of Day
12h 27m
Waning Crescent, 5% of the Moon is Illuminated
Mar 28
Waning Crescent
Mar 30
New
Apr 7
First Quarter
Apr 15
Full
Apr 22
Last Quarter

Hourly Weather History & Observations

Time (PDT) Temp. Dew Point Humidity Pressure Visibility Wind Dir Wind Speed Gust Speed Precip Events Conditions
12:54 AM 52.0 °F 43.0 °F 71% 30.19 in 10.0 mi ESE 5.8 mph - N/A   Clear
1:54 AM 52.0 °F 42.1 °F 69% 30.20 in 10.0 mi Calm Calm - N/A   Partly Cloudy
2:09 AM 51.8 °F 42.8 °F 71% 30.17 in 10.0 mi East 4.6 mph - N/A   Mostly Cloudy
2:54 AM 52.0 °F 43.0 °F 71% 30.20 in 10.0 mi East 4.6 mph - N/A   Overcast
3:54 AM 54.0 °F 44.1 °F 69% 30.19 in 10.0 mi ESE 4.6 mph - N/A   Overcast
4:54 AM 54.0 °F 43.0 °F 66% 30.18 in 10.0 mi ESE 4.6 mph - N/A   Scattered Clouds
5:54 AM 52.0 °F 43.0 °F 71% 30.19 in 10.0 mi ESE 3.5 mph - N/A   Clear
6:54 AM 50.0 °F 42.1 °F 74% 30.21 in 10.0 mi East 6.9 mph - N/A   Scattered Clouds
7:54 AM 52.0 °F 43.0 °F 71% 30.23 in 10.0 mi Calm Calm - N/A   Scattered Clouds
8:54 AM 55.0 °F 45.0 °F 69% 30.25 in 10.0 mi Calm Calm - N/A   Clear
9:54 AM 60.1 °F 46.9 °F 62% 30.26 in 10.0 mi NW 3.5 mph - N/A   Clear
10:54 AM 61.0 °F 48.0 °F 62% 30.26 in 10.0 mi West 4.6 mph - N/A   Clear
11:54 AM 62.1 °F 48.0 °F 60% 30.25 in 10.0 mi West 6.9 mph - N/A   Clear
12:54 PM 64.9 °F 48.0 °F 54% 30.25 in 10.0 mi NW 5.8 mph - N/A   Clear
1:54 PM 63.0 °F 48.0 °F 58% 30.23 in 10.0 mi NW 10.4 mph - N/A   Clear
2:54 PM 64.9 °F 46.9 °F 52% 30.22 in 10.0 mi WSW 9.2 mph - N/A   Clear
3:54 PM 64.0 °F 46.9 °F 54% 30.20 in 10.0 mi SW 11.5 mph - N/A   Clear
4:54 PM 63.0 °F 48.0 °F 58% 30.18 in 10.0 mi West 10.4 mph - N/A   Clear
5:54 PM 61.0 °F 48.0 °F 62% 30.18 in 10.0 mi SW 9.2 mph - N/A   Clear
6:54 PM 59.0 °F 48.9 °F 69% 30.19 in 10.0 mi WSW 6.9 mph - N/A   Clear
7:54 PM 57.9 °F 48.9 °F 72% 30.19 in 10.0 mi SW 3.5 mph - N/A   Clear
8:54 PM 57.0 °F 46.9 °F 69% 30.22 in 10.0 mi South 4.6 mph - N/A   Clear
9:54 PM 57.9 °F 45.0 °F 62% 30.22 in 10.0 mi South 5.8 mph - N/A   Clear
10:54 PM 55.9 °F 44.1 °F 64% 30.22 in 10.0 mi South 4.6 mph - N/A   Clear
11:54 PM 55.9 °F 45.0 °F 67% 30.22 in 10.0 mi Calm Calm - N/A   Clear